Manado, Indonesia

2:20 AM WITA on November 24, 2017 (GMT +0800)
Ratulangi

Weather History for WAMM - May, 2013

Change the Weather History Date:

Tuesday, May 28, 2013

  Actual Average Record
Temperature  
Mean Temperature 79 °F -  
Max Temperature 85 °F - - ()
Min Temperature 73 °F - - ()
Cooling Degree Days 14    
Growing Degree Days 29 (Base 50)    
Moisture  
Dew Point 75 °F    
Average Humidity 89    
Maximum Humidity 97    
Minimum Humidity 74    
Precipitation  
Precipitation 0.16 in - - ()
Sea Level Pressure  
Sea Level Pressure 29.85 in    
Wind  
Wind Speed 1 mph ()    
Max Wind Speed 5 mph    
Max Gust Speed -    
Visibility 5.8 miles    
Events Rain    
T = Trace of Precipitation, MM = Missing Value Source: Averaged Metar Reports

Daily Weather History Graph

Daily Weather History Graph

Search for Another Location

Airport or City:

Trip Planner

Search our weather history database for the weather conditions in past years. The results will help you decide how hot, cold, wet, or windy it might be!

Date:

Astronomy

May. 28, 2013 Rise Set
Actual Time 5:31 AM WITA 5:43 PM WITA
Civil Twilight 5:09 AM WITA 6:05 PM WITA
Nautical Twilight 4:43 AM WITA 6:31 PM WITA
Astronomical Twilight 4:17 AM WITA 6:57 PM WITA
Moon 9:00 PM WITA (5/28) 8:25 AM WITA (5/28)
Length of Visible Light 12h 56m
Length of Day
12h 12m
Waning Gibbous, 87% of the Moon is Illuminated
May 28
Waning Gibbous
Jun 1
Last Quarter
Jun 8
New
Jun 17
First Quarter
Jun 23
Full

Hourly Weather History & Observations

Time (WITA) Temp. Heat Index Dew Point Humidity Pressure Visibility Wind Dir Wind Speed Gust Speed Precip Events Conditions
12:00 AM 75.2 °F - 73.4 °F 94% 29.86 in 5.6 mi Calm Calm - N/A   Partly Cloudy
2:00 AM 75 °F - 74 °F 95% 29.83 in 6 mi Calm Calm - -   Partly Cloudy
5:00 AM 73 °F - 72 °F 97% 29.84 in 6 mi Calm Calm - -   Scattered Clouds
5:00 AM 75.2 °F - 73.4 °F 94% 29.83 in 5.6 mi Calm Calm - N/A   Partly Cloudy
5:30 AM 75.2 °F - 73.4 °F 94% 29.83 in 5.6 mi Calm Calm - N/A   Partly Cloudy
6:00 AM 75.2 °F - 73.4 °F 94% 29.83 in 6.2 mi Calm Calm - N/A   Partly Cloudy
6:30 AM 75.2 °F - 73.4 °F 94% 29.83 in 6.2 mi Calm Calm - N/A   Partly Cloudy
7:00 AM 78.8 °F - 75.2 °F 89% 29.83 in 6.2 mi SE 1.2 mph - N/A   Partly Cloudy
8:00 AM 83 °F - 76 °F 74% 29.87 in 6 mi Calm Calm - -   Scattered Clouds
8:00 AM 82.4 °F 89.5 °F 75.2 °F 79% 29.83 in 6.2 mi Calm Calm - N/A   Partly Cloudy
8:30 AM 82.4 °F 89.5 °F 75.2 °F 79% 29.86 in 6.2 mi North 4.6 mph - N/A   Partly Cloudy
9:00 AM 82.4 °F 90.9 °F 77.0 °F 84% 29.86 in 6.2 mi Calm Calm - N/A   Partly Cloudy
9:30 AM 84.2 °F 94.1 °F 77.0 °F 79% 29.86 in 6.2 mi WNW 1.2 mph - N/A   Partly Cloudy
10:00 AM 84.2 °F 92.3 °F 75.2 °F 74% 29.86 in 6.2 mi NNW 1.2 mph - N/A   Partly Cloudy
10:30 AM 84.2 °F 94.1 °F 77.0 °F 79% 29.86 in 6.2 mi North 3.5 mph - N/A   Scattered Clouds
11:00 AM 83 °F - 77 °F 76% 29.87 in 6 mi Calm Calm - -   Partly Cloudy
11:00 AM 82.4 °F 90.9 °F 77.0 °F 84% 29.86 in 6.2 mi NNW 1.2 mph - N/A   Scattered Clouds
11:30 AM 82.4 °F 90.9 °F 77.0 °F 84% 29.86 in 6.2 mi NNW 2.3 mph - N/A   Scattered Clouds
12:00 PM 84.2 °F 94.1 °F 77.0 °F 79% 29.86 in 6.2 mi NNW 1.2 mph - N/A   Scattered Clouds
12:30 PM 82.4 °F 90.9 °F 77.0 °F 84% 29.86 in 6.2 mi NNW 2.3 mph - N/A   Scattered Clouds
1:00 PM 82.4 °F 89.5 °F 75.2 °F 79% 29.86 in 6.2 mi North 2.3 mph - N/A   Scattered Clouds
1:30 PM 82.4 °F 90.9 °F 77.0 °F 84% 29.86 in 6.2 mi Calm Calm - N/A   Scattered Clouds
2:00 PM 81 °F - 77 °F 84% 29.85 in 6 mi NNE 1.2 mph - - Rain Light Rain
2:00 PM 80.6 °F 87.1 °F 77.0 °F 89% 29.86 in 6.2 mi NNE 1.2 mph - N/A Rain Rain
3:30 PM 77.0 °F - 73.4 °F 89% 29.80 in 2.5 mi NNW 2.3 mph - N/A Rain Light Rain
4:00 PM 75.2 °F - 73.4 °F 94% 29.83 in 5.0 mi North 3.5 mph - N/A Rain Light Rain
4:30 PM 77.0 °F - 75.2 °F 94% 29.83 in 5.0 mi SW 3.5 mph - N/A Rain Light Rain
5:00 PM 76 °F - 74 °F 92% 29.85 in 5 mi SSW 3.5 mph - - Rain Light Rain
5:00 PM 77.0 °F - 73.4 °F 89% 29.83 in 5.0 mi South 3.5 mph - N/A Rain Light Rain
5:30 PM 75.2 °F - 73.4 °F 94% 29.83 in 5.0 mi SW 3.5 mph - N/A Rain Light Rain
6:00 PM 75.2 °F - 73.4 °F 94% 29.83 in 5.0 mi South 3.5 mph - N/A Rain Light Rain
6:30 PM 75.2 °F - 73.4 °F 94% 29.83 in 5.0 mi SE 1.2 mph - N/A   Scattered Clouds
7:00 PM 75.2 °F - 73.4 °F 94% 29.86 in 5.0 mi SE 3.5 mph - N/A   Scattered Clouds
7:30 PM 75.2 °F - 73.4 °F 94% 29.86 in 5.0 mi SSE 3.5 mph - N/A   Scattered Clouds
8:00 PM 76 °F - 74 °F 91% 29.87 in 6 mi NNE 2.3 mph - -   Partly Cloudy
8:00 PM 75.2 °F - 73.4 °F 94% 29.86 in 5.6 mi North 2.3 mph - N/A   Scattered Clouds
8:30 PM 75.2 °F - 73.4 °F 94% 29.86 in 6.2 mi SE 3.5 mph - N/A   Scattered Clouds
9:00 PM 75.2 °F - 73.4 °F 94% 29.89 in 6.2 mi SSE 2.3 mph - N/A   Scattered Clouds
9:30 PM 75.2 °F - 73.4 °F 94% 29.89 in 6.2 mi Calm Calm - N/A   Partly Cloudy
10:00 PM 75.2 °F - 73.4 °F 94% 29.89 in 6.2 mi Calm Calm - N/A   Partly Cloudy
10:30 PM 75.2 °F - 73.4 °F 94% 29.89 in 6.2 mi Calm Calm - N/A   Partly Cloudy
11:00 PM 75 °F - 74 °F 94% 29.89 in 6 mi NE 3.5 mph - -   Scattered Clouds
11:00 PM 75.2 °F - 73.4 °F 94% 29.89 in 6.2 mi NE 3.5 mph - N/A   Partly Cloudy